This demonstration page uses our WeatherBlox Daily Observations layout. Learn more.

Left ArrowRight Arrow

39.01783, -85.05884

Hourly Observations for March 5, 2018

Temp ( °F °C ) Dew Point ( °F °C ) Humidity (%) Winds ( mph kmh ) Pressure ( in mb ) Visibility ( mi km ) Precip ( " mm )
12:52 am 00:52 Mostly Clear 36 2.2 21 -6.1 55 55 ENE 16 26 30.27 1025 10 16 N/A
1:52 am 01:52 Partly Cloudy 35 1.7 18 -7.8 50 50 ENE 14 22 30.25 1024 10 16 N/A
2:52 am 02:52 Mostly Clear 34 1.1 16 -8.9 48 48 ENE 14 22 30.23 1024 10 16 N/A
3:52 am 03:52 Clear 32 undefined 17 -8.3 54 54 ENE 12 19 30.20 1023 10 16 N/A
4:52 am 04:52 Mostly Cloudy 31 -0.6 17 -8.3 56 56 ENE 8 13 30.21 1023 10 16 N/A
5:52 am 05:52 Mostly Cloudy 30 -1.1 17 -8.3 58 58 E 8 13 30.22 1023 10 16 N/A
6:52 am 06:52 Cloudy 31 -0.6 17 -8.3 56 56 E 12 19 30.22 1023 10 16 N/A
7:52 am 07:52 Cloudy 31 -0.6 17 -8.3 56 56 ENE 13 20 30.22 1023 10 16 N/A
8:52 am 08:52 Cloudy 33 0.6 18 -7.8 54 54 E 13 20 30.20 1023 10 16 N/A
9:52 am 09:52 Cloudy 35 1.7 18 -7.8 50 50 E 12 19 30.21 1023 10 16 N/A
10:52 am 10:52 Cloudy 38 3.3 18 -7.8 44 44 E 10 17 30.19 1022 10 16 N/A
11:52 am 11:52 Cloudy 40 4.4 17 -8.3 40 40 ENE 13 20 30.15 1021 10 16 N/A
12:52 pm 12:52 Cloudy 42 5.6 17 -8.3 36 36 E 12 19 30.12 1020 10 16 N/A
1:52 pm 13:52 Mostly Cloudy 45 7.2 17 -8.3 33 33 E 10 17 30.08 1019 10 16 N/A
2:52 pm 14:52 Mostly Cloudy 48 8.9 18 -7.8 30 30 E 12 19 30.05 1018 10 16 N/A
3:52 pm 15:52 Mostly Cloudy 47 8.3 18 -7.8 31 31 E 10 17 30.02 1017 10 16 N/A
4:52 pm 16:52 Mostly Cloudy 47 8.3 20 -6.7 34 34 E 12 19 29.98 1015 10 16 N/A
5:52 pm 17:52 Cloudy 47 8.3 18 -7.8 31 31 SE 14 22 29.97 1015 10 16 N/A
6:52 pm 18:52 Cloudy 46 7.8 19 -7.2 34 34 E 14 22 29.94 1014 10 16 N/A
7:52 pm 19:52 Cloudy 46 7.8 21 -6.1 37 37 E 12 19 29.93 1014 10 16 N/A
8:52 pm 20:52 Cloudy 45 7.2 20 -6.7 37 37 E 14 22 29.90 1013 10 16 N/A
9:52 pm 21:52 Cloudy 46 7.8 18 -7.8 32 32 ESE 15 24 29.88 1012 10 16 N/A
10:52 pm 22:52 Cloudy with Light Rain 43 6.1 24 -4.4 47 47 ESE 10 17 29.88 1012 10 16 N/A
11:52 pm 23:52 Cloudy with Light Rain 44 6.7 22 -5.6 41 41 SE 12 19 29.87 1012 10 16 N/A

Powered by AerisWeather